Regional Weather Roundup
Issued by NWS Burlington, VT

Home | Current Version | Previous Version | Text Only | Print | Product List | Glossary On
Versions: 1 2 3 4 5 6 7 8 9 10 11 12 13 14 15 16 17 18 19 20 21 22 23 24 25 26 27 28 29 30 31 32 33 34 35 36 37 38 39 40 41 42 43 44 45 46 47 48 49 50
000
ASUS41 KBTV 260830
RWRBTV
VERMONT REGIONAL WEATHER ROUNDUP
NATIONAL WEATHER SERVICE BURLINGTON VT
400 AM EDT THU MAY 26 2016

NOTE: "FAIR" INDICATES FEW OR NO CLOUDS BELOW 12,000 FEET WITH NO
SIGNIFICANT WEATHER AND/OR OBSTRUCTIONS TO VISIBILITY.

* THESE REPORTS ARE NOT UNDER NWS QUALITY CONTROL AND/OR DO NOT
  REPORT WEATHER SUCH AS PRECIPITATION AND FOG.

VTZ001>019-260900-
_____VERMONT_____


CITY           SKY/WX    TMP DP  RH WIND       PRES   REMARKS
BURLINGTON     FAIR      59  51  75 CALM      30.08R
MONTPELIER     FAIR      55  52  89 CALM      30.13R
MORRISVILLE    FAIR      50  48  93 CALM      30.10R FOG
ST. JOHNSBURY*   N/A     53  51  93 MISG      30.07R
LYNDONVILLE*   FAIR      54  52  93 CALM      30.11R
MIDDLEBURY*    FAIR      55  55 100 CALM      30.09R
RUTLAND*       FAIR      55  52  89 SE6       30.09R
SPRINGFIELD    FAIR      54  52  93 CALM      30.08R
HIGHGATE*      FAIR      51  50  97 CALM      30.09R
NEWPORT*       FAIR      51  48  90 W3        30.11R
BENNINGTON     FAIR      55  53  93 CALM      30.08R FOG
MT. MANSFIELD*   N/A     50 N/A N/A N17         N/A

_____LAKE CHAMPLAIN_____


CITY           SKY/WX    TMP DP  RH WIND       PRES   REMARKS
COLCHESTER RF*   N/A     63  55  77 NW8         N/A
DIAMOND ISL*     N/A     66  52  59 NW14        N/A

$$

NYZ007-026>031-035-052-083-087-260900-
_____NORTHERN NEW YORK_____


CITY           SKY/WX    TMP DP  RH WIND       PRES   REMARKS
PLATTSBURGH    CLOUDY    55  52  89 W5        30.08R
SARANAC LAKE   CLOUDY    47  44  90 CALM      30.10R
MASSENA        MOCLDY    54  51  90 CALM      30.10R
OGDENSBURG*    CLEAR     54  54 100 CALM      30.09R
POTSDAM*       PTCLDY    54  54 100 E3        30.09S
WATERTOWN      CLEAR     54  52  93 CALM      30.05S
FT DRUM        CLOUDY    57  53  86 E8        30.06S
ALBANY         MOCLDY    60  54  80 NE3       30.07R
GLENS FALLS    CLOUDY    55  51  86 N5        30.08R

$$
NHZ002-005-011-260900-
_____NEW HAMPSHIRE_____


CITY           SKY/WX    TMP DP  RH WIND       PRES   REMARKS
LEBANON        MOCLDY    54  51  90 CALM      30.07R
KEENE          PTCLDY    54  52  94 CALM      30.09R VSB 1
MT WASHINGTON  FOG       41  41 100 W49         N/A  VSB 0   WCI  27
PLYMOUTH       FAIR      52  51  97 CALM      30.06R FOG
WHITEFIELD     CLOUDY    46  44  93 CALM      30.09R

$$

_____REGIONAL QUEBEC LOCATIONS_____


CITY           SKY/WX    TMP DP  RH WIND       PRES   REMARKS
MONTREAL       PTCLDY    55  46  71 N9        30.10R
QUEBEC CITY    PTCLDY    52  45  76 W5        30.07R
SHERBROOKE     CLEAR     46  46 100 CALM      30.09R FOG

_____REGIONAL ONTARIO LOCATIONS_____


CITY           SKY/WX    TMP DP  RH WIND       PRES   REMARKS
OTTAWA         MOCLDY    55  50  82 NE6       30.09S

______KEY______
VSB  - VISIBILITY IN MILES
WCI  - WIND CHILL INDEX
HX   - HEAT INDEX
$$
NNNN



USA.gov is the U.S. government's official web portal to all federal, state and local government web resources and services.